[[{"header":{"parameterUnit":"m.s-1","parameterCategory":1,"la1":30.2991,"la2":30.254,"lo1":-89.0895,"lo2":-89.0444,"dy":0.0017,"dx":0.0017,"nx":28,"ny":28,"refTime":"2026-01-02T09:00:00:Z","depth":0,"parameterNumber":2,"parameterNumberName":"U-component_of_WINDS"},"data":[0,0,0,0,0,0,0,0,0,0,0,0,0,0,0,0,0,0,0,0,0,0,0,0,0,0,0,0,0,0,0,0,0,0,0,0,0,0,0,0,0,0,0,0,0,0,0,0,0,0,0,0,0,0,0,0,0,0,3.0449,3.0451,0,3.0632,3.0634,3.0636,3.0612,3.0609,3.0606,3.0603,3.0792,3.08,3.0807,0,0,0,0,0,0,0,0,0,0,0,0,0,3.0081,3.0088,3.0449,3.0451,3.0454,3.0632,3.0634,3.0637,3.0612,3.0608,3.0605,3.0601,3.0789,3.0799,3.0808,0,0,0,0,0,0,0,0,0,0,0,0,0,3.025,3.0091,3.0449,3.0463,3.0466,3.0631,3.0634,3.0637,3.0613,3.0608,3.0604,3.06,3.0786,3.0798,3.0809,3.0973,0,0,3.0845,3.085,0,0,0,0,0,0,0,0,3.0241,3.0264,3.0458,3.0462,3.0466,3.0594,3.0574,3.075,3.0614,3.0557,3.0603,3.0597,3.073,3.0746,3.079,3.0982,3.099,3.0846,3.0854,3.0859,3.0862,0,0,0,0,0,0,0,3.0229,3.0256,3.0521,3.0461,3.0466,3.0461,3.048,3.0607,3.0667,3.0562,3.056,3.0582,3.0731,3.0779,3.0795,3.0992,3.0846,3.0856,3.0864,3.0868,3.1327,3.1332,0,0,0,0,0,0,3.0213,3.0246,3.0516,3.0527,3.034,3.0471,3.0492,3.0558,3.0665,3.0677,3.0586,3.058,3.0761,3.0781,3.0801,3.0999,3.0858,3.087,3.0876,3.1322,3.1328,3.1334,0,0,0,0,0,0,3.0206,3.0238,3.0508,3.0386,3.042,3.0482,3.0556,3.0564,3.0611,3.0684,3.0694,3.0624,3.0758,3.0785,3.093,3.1005,3.0875,3.0886,3.1316,3.1324,3.1331,3.1396,0,0,0,0,0,0,3.0195,3.0235,3.0297,3.0388,3.0427,3.0633,3.056,3.057,3.0632,3.0626,3.0722,3.0733,3.0757,3.0913,3.0942,3.1019,3.0895,3.131,3.132,3.1329,3.1388,3.1405,3.142,0,0,0,0,0,3.0182,3.0308,3.03,3.0333,3.0506,3.0638,3.066,3.0684,3.0638,3.0701,3.0747,3.073,3.0993,3.0928,3.096,3.1042,3.1305,3.1317,3.1328,3.138,3.1402,3.142,0,0,0,0,0,0,3.0225,3.0321,3.0312,3.0472,3.0547,3.0633,3.0713,3.0706,3.0796,3.0787,3.0814,3.0836,3.0983,3.1027,3.0953,3.1206,3.1143,3.1161,3.1171,3.1192,3.1208,3.1194,3.0905,0,0,0,0,0,3.0253,3.0352,3.043,3.0563,3.0601,3.0651,3.071,3.0722,3.08,3.0832,3.0889,3.0967,3.1067,3.1133,3.1229,3.1395,3.1415,3.1467,3.1484,3.1497,3.1512,3.1603,3.1627,3.1372,3.1372,3.1371,0,0,3.0312,3.0376,3.0437,3.0574,3.0633,3.0735,3.0678,3.0788,3.0864,3.0849,3.0989,3.1035,3.1124,3.128,3.1352,3.1322,3.1588,3.1511,3.1521,3.153,3.1618,3.1642,3.1663,3.138,3.1378,3.1377,0,0,3.047,3.053,3.0646,3.0707,3.0798,3.0831,3.0859,3.0948,3.0976,3.1118,3.1108,3.12,3.1372,3.1436,3.1491,3.1675,3.1663,3.1706,3.1791,3.1879,3.1899,3.1917,3.1982,3.2006,3.1722,3.1722,3.1722,0,3.0532,3.0684,3.0708,3.082,3.088,3.0871,3.099,3.1049,3.1166,3.1209,3.1174,3.1389,3.1449,3.162,3.1665,3.171,3.1743,3.1694,3.1894,3.1913,3.193,3.1992,3.2017,3.1726,3.1726,3.1725,3.1725,0,3.0755,3.0862,3.0946,3.1059,3.1129,3.1244,3.1285,3.1354,3.1361,3.1397,3.1542,3.1613,3.1723,3.1765,3.1773,3.1938,3.1917,3.1888,3.1824,3.1958,3.2017,3.2042,3.1733,3.1731,3.173,3.1729,0,0,3.0944,3.107,3.11,3.1151,3.1252,3.1335,3.145,3.1557,3.1615,3.1698,3.1795,3.1941,3.1915,3.1978,3.1993,3.2071,3.2212,3.2033,3.2036,3.2063,3.2398,3.2418,3.2445,3.2206,3.221,3.2214,3.239,0,3.1111,3.1314,3.1339,3.1519,3.1617,3.1611,3.1712,3.1785,3.1823,3.1913,3.1955,3.2058,3.2016,3.2054,3.2131,3.2179,3.228,3.2167,3.2296,3.2301,3.2272,3.2476,3.2497,3.266,3.2414,3.2418,3.2421,0,3.1333,3.1421,3.1611,3.1698,3.174,3.183,3.193,3.2016,3.21,3.2122,3.2192,3.2198,3.2318,3.2251,3.2416,3.2339,3.2394,3.2426,3.2433,3.2444,3.2367,3.2492,3.2713,3.2737,3.2457,3.2454,3.2452,0,3.145,3.1616,3.1751,3.1796,3.1901,3.1964,3.2011,3.209,3.2153,3.2242,3.2283,3.2385,3.2441,3.252,3.2553,3.2501,3.2717,3.2653,3.2739,3.2738,3.2783,3.278,3.3014,3.2822,3.2821,3.2821,3.282,0,3.1633,3.1749,3.1805,3.1888,3.2018,3.2047,3.2175,3.222,3.229,3.2382,3.2385,3.2471,3.251,3.2604,3.2631,3.2764,3.279,3.2811,3.2816,3.281,3.2807,3.2845,3.2834,3.2827,3.2826,3.2824,3.2823,0,3.1785,3.1827,3.1973,3.2062,3.2087,3.2179,3.2254,3.2335,3.2373,3.2489,3.2518,3.2578,3.2688,3.2729,3.2864,3.2882,3.3035,3.3033,3.3007,3.3008,3.3091,3.3082,3.3357,3.3395,3.3178,3.318,3.3182,0,3.1898,3.1987,3.2085,3.2146,3.2195,3.2295,3.2359,3.2392,3.2459,3.2561,3.263,3.2739,3.2828,3.3004,3.3059,3.3162,3.3161,3.3251,3.3176,3.3167,3.3161,3.3155,3.3164,3.3263,3.3266,3.3267,3.3269,0,3.2094,3.2111,3.2203,3.2304,3.238,3.2461,3.254,3.259,3.2635,3.2711,3.2822,3.2891,3.3029,3.3137,3.3243,3.3292,3.3289,3.3292,3.3317,3.3311,3.3291,3.3302,3.3043,3.3285,3.3284,3.3282,3.3282,3.3281,3.2229,3.2308,3.2389,3.2492,3.2555,3.2628,3.2708,3.2756,3.285,3.2963,3.2978,3.3098,3.318,3.3322,3.3376,3.3471,3.3448,3.3484,3.3493,3.3502,3.3507,3.3278,3.3491,3.3491,3.349,3.349,3.349,0,3.2424,3.2476,3.2571,3.268,3.2762,3.2752,3.2838,3.2907,3.3013,3.309,3.3177,3.3306,3.3412,3.3477,3.3583,3.3647,3.3648,3.3674,3.3668,3.368,3.3523,3.3489,3.3671,3.3671,3.3671,3.3671,3.3671,3.3671,3.2534,3.2667,3.2694,3.2858,3.291,3.3027,3.3077,3.3146,3.3207,3.3351,3.3438,3.348,3.3552,3.3664,3.3761,3.3778,3.3816,3.3844,3.3858,3.371,3.3691,3.3673,3.3642,3.3853,3.3853,3.4008,3.4009,3.401]},{"header":{"parameterUnit":"m.s-1","parameterCategory":1,"la1":30.2991,"la2":30.254,"lo1":-89.0895,"lo2":-89.0444,"dy":0.0017,"dx":0.0017,"nx":28,"ny":28,"refTime":"2026-01-02T09:00:00:Z","depth":0,"parameterNumber":3,"parameterNumberName":"V-component_of_WINDS"},"data":[0,0,0,0,0,0,0,0,0,0,0,0,0,0,0,0,0,0,0,0,0,0,0,0,0,0,0,0,0,0,0,0,0,0,0,0,0,0,0,0,0,0,0,0,0,0,0,0,0,0,0,0,0,0,0,0,0,0,2.062,2.0621,0,2.0716,2.0717,2.0719,2.0708,2.0706,2.0705,2.0703,2.08,2.0804,2.0808,0,0,0,0,0,0,0,0,0,0,0,0,0,2.0426,2.0429,2.062,2.0621,2.0623,2.0716,2.0718,2.0719,2.0708,2.0706,2.0704,2.0703,2.0799,2.0804,2.0808,0,0,0,0,0,0,0,0,0,0,0,0,0,2.0515,2.043,2.062,2.0629,2.063,2.0716,2.0718,2.0719,2.0709,2.0706,2.0704,2.0702,2.0797,2.0803,2.0809,2.0892,0,0,2.0827,2.083,0,0,0,0,0,0,0,0,2.051,2.0522,2.0626,2.0628,2.063,2.0698,2.0684,2.0777,2.0709,2.0679,2.0703,2.0701,2.0768,2.0776,2.0799,2.0896,2.09,2.0828,2.0831,2.0834,2.0836,0,0,0,0,0,0,0,2.0504,2.0518,2.0658,2.0628,2.063,2.0627,2.0637,2.0702,2.0735,2.0681,2.0681,2.0692,2.0768,2.0793,2.0801,2.0902,2.0828,2.0833,2.0837,2.0839,2.1071,2.1074,0,0,0,0,0,0,2.0495,2.0513,2.0655,2.0661,2.0563,2.0632,2.0644,2.0678,2.0734,2.0741,2.0694,2.0691,2.0784,2.0794,2.0805,2.0905,2.0834,2.084,2.0843,2.1069,2.1072,2.1074,0,0,0,0,0,0,2.0491,2.0508,2.0651,2.0587,2.0605,2.0638,2.0677,2.0682,2.0706,2.0744,2.075,2.0714,2.0783,2.0796,2.087,2.0908,2.0842,2.0848,2.1066,2.107,2.1073,2.1107,0,0,0,0,0,0,2.0486,2.0507,2.0539,2.0588,2.0608,2.0716,2.068,2.0685,2.0717,2.0714,2.0764,2.077,2.0782,2.0861,2.0876,2.0915,2.0852,2.1062,2.1067,2.1072,2.1102,2.1111,2.1119,0,0,0,0,0,2.0479,2.0544,2.0541,2.0558,2.0649,2.0718,2.073,2.0743,2.072,2.0752,2.0777,2.0768,2.0902,2.0869,2.0886,2.0927,2.106,2.1066,2.1071,2.1098,2.1109,2.1118,0,0,0,0,0,0,2.0499,2.0551,2.0548,2.0631,2.067,2.0716,2.0758,2.0754,2.0801,2.0796,2.081,2.0822,2.0896,2.0919,2.0882,2.101,2.0978,2.0987,2.0992,2.1003,2.1011,2.1004,2.0857,0,0,0,0,0,2.0513,2.0565,2.0608,2.0677,2.0697,2.0724,2.0754,2.0761,2.0802,2.0819,2.0848,2.0888,2.0939,2.0972,2.1021,2.1105,2.1116,2.1142,2.115,2.1157,2.1165,2.1211,2.1223,2.1093,2.1093,2.1093,0,0,2.0543,2.0578,2.061,2.0682,2.0713,2.0766,2.0738,2.0795,2.0835,2.0827,2.0899,2.0922,2.0967,2.1047,2.1083,2.1068,2.1203,2.1164,2.1169,2.1174,2.1218,2.123,2.1241,2.1097,2.1097,2.1096,0,0,2.0624,2.0656,2.0717,2.0749,2.0797,2.0815,2.0829,2.0876,2.0891,2.0964,2.0959,2.1006,2.1093,2.1126,2.1153,2.1247,2.1241,2.1262,2.1305,2.135,2.136,2.1369,2.1402,2.1414,2.127,2.127,2.127,0,2.0655,2.0736,2.0749,2.0807,2.0839,2.0835,2.0897,2.0927,2.0988,2.101,2.0992,2.1102,2.1132,2.1219,2.1242,2.1264,2.1281,2.1257,2.1358,2.1367,2.1376,2.1407,2.142,2.1272,2.1272,2.1272,2.1272,0,2.0771,2.0827,2.087,2.093,2.0967,2.1027,2.1048,2.1084,2.1087,2.1106,2.118,2.1216,2.1272,2.1293,2.1297,2.138,2.1369,2.1355,2.1322,2.139,2.142,2.1432,2.1276,2.1275,2.1274,2.1274,0,0,2.0868,2.0935,2.095,2.0977,2.103,2.1073,2.1132,2.1188,2.1217,2.126,2.1309,2.1383,2.137,2.1401,2.1409,2.1448,2.1519,2.1428,2.143,2.1444,2.1613,2.1624,2.1638,2.1515,2.1518,2.152,2.1609,0,2.0955,2.106,2.1074,2.1167,2.1219,2.1216,2.1267,2.1304,2.1324,2.137,2.1391,2.1443,2.1421,2.144,2.1479,2.1503,2.1554,2.1496,2.1561,2.1564,2.155,2.1654,2.1666,2.1749,2.1621,2.1623,2.1625,0,2.107,2.1116,2.1215,2.126,2.1282,2.1328,2.138,2.1424,2.1466,2.1477,2.1513,2.1515,2.1575,2.1541,2.1624,2.1585,2.1612,2.1627,2.1631,2.1638,2.1598,2.1663,2.1775,2.1788,2.1643,2.1642,2.164,0,2.1131,2.1217,2.1287,2.1311,2.1365,2.1398,2.1422,2.1462,2.1494,2.1539,2.156,2.1611,2.1639,2.1678,2.1694,2.1667,2.1776,2.1743,2.1787,2.1786,2.181,2.1808,2.1928,2.1828,2.1827,2.1827,2.1827,0,2.1226,2.1286,2.1316,2.1359,2.1426,2.1441,2.1507,2.153,2.1565,2.1612,2.1612,2.1656,2.1675,2.1721,2.1734,2.1801,2.1813,2.1824,2.1826,2.1824,2.1822,2.1842,2.1837,2.183,2.183,2.1829,2.1829,0,2.1305,2.1327,2.1404,2.1449,2.1462,2.151,2.1548,2.159,2.1608,2.1668,2.1683,2.1712,2.1767,2.1787,2.1853,2.1862,2.1939,2.1937,2.1925,2.1926,2.1969,2.1964,2.2105,2.2124,2.2011,2.2012,2.2013,0,2.1365,2.1411,2.1462,2.1494,2.1519,2.1571,2.1604,2.162,2.1654,2.1705,2.174,2.1795,2.184,2.1928,2.1954,2.2005,2.2004,2.205,2.2012,2.2008,2.2005,2.2002,2.2006,2.2057,2.2058,2.2059,2.206,0,2.1468,2.1477,2.1525,2.1577,2.1616,2.1658,2.1698,2.1724,2.1746,2.1784,2.1841,2.1875,2.1944,2.1998,2.205,2.2074,2.2071,2.2072,2.2085,2.2083,2.2074,2.2079,2.1945,2.2069,2.2068,2.2067,2.2067,2.2066,2.1539,2.158,2.1623,2.1676,2.1708,2.1745,2.1787,2.1811,2.1858,2.1916,2.1922,2.1983,2.2023,2.2093,2.2119,2.2166,2.2154,2.2172,2.2177,2.2181,2.2185,2.2066,2.2176,2.2175,2.2175,2.2175,2.2175,0,2.1642,2.1669,2.1718,2.1775,2.1817,2.1811,2.1855,2.189,2.1944,2.1982,2.2026,2.2091,2.2143,2.2174,2.2227,2.2258,2.2258,2.2272,2.2269,2.2275,2.2193,2.2177,2.2271,2.2271,2.2271,2.2271,2.2271,2.2271,2.1701,2.177,2.1784,2.1869,2.1895,2.1955,2.1981,2.2015,2.2046,2.2118,2.2162,2.2182,2.2217,2.2272,2.232,2.2327,2.2347,2.2361,2.2368,2.2291,2.2281,2.2271,2.2256,2.2365,2.2366,2.2446,2.2447,2.2447]}]]